Presure
247 188 229 222 252 235 236 234 242 286 271 293 181 182 184 159 141 137 135 127 125 123 139 128 142 130 129 136 120 151 169 116 143 132 166 134 144 144 175 126 141 155 147 126 219
246 246 235 251 241 253 217 209 248 263 274 267 128 165 167 170 207 125 143 129 128 131 125 134 131 132 123 128 145 138 130 140 132 134 138 172 164 168 149 190 154 157 141 96 147
242 250 247 252 255 243 259 269 223 275 248 232 304 214 255 162 195 174 129 126 127 129 126 143 127 127 132 129 136 118 151 123 129 116 131 146 130 150 123 141 194 139 160 142 131
245 265 252 256 230 257 262 279 273 247 232 285 272 250 259 139 315 177 152 140 139 132 134 137 123 124 127 130 118 148 127 146 143 205 142 126 116 152 134 166 138 155 209 176 164
247 255 257 266 255 277 274 282 293 254 246 236 269 319 332 337 284 193 134 248 145 137 149 137 180 126 124 130 127 141 134 123 145 141 140 172 155 141 114 151 141 93 126 175 163
254 267 263 267 262 267 213 279 304 306 243 325 244 354 237 254 310 145 249 149 145 136 143 139 167 131 121 130 138 133 123 131 136 146 145 160 140 157 127 131 210 146 224 153 132
254 258 270 266 267 274 275 296 308 313 338 199 363 296 259 249 353 269 151 189 162 142 136 143 133 134 116 124 132 131 145 133 140 157 131 184 126 163 164 152 125 90 133 88 95
268 268 265 268 275 287 298 314 349 374 367 363 332 355 324 333 277 233 327 298 173 132 130 133 148 127 125 130 116 133 131 140 151 203 142 145 174 187 143 152 193 166 155 106 223
272 274 279 285 299 311 337 364 376 322 361 369 355 325 264 325 320 319 250 337 134 135 141 129 139 131 112 132 145 131 129 151 210 194 140 142 129 137 137 138 164 83 97 171 184
294 303 310 323 363 386 390 382 368 362 342 366 329 239 321 307 297 303 316 336 308 151 131 129 229 143 134 123 144 143 154 158 156 135 133 144 157 160 131 146 141 129 132 140 229
356 358 357 378 402 408 409 393 374 375 328 319 297 298 289 263 304 300 304 306 309 307 153 130 145 113 326 196 113 255 167 162 119 134 131 141 139 126 144 136 125 134 151 234 147
374 367 383 397 393 364 385 399 378 203 296 312 283 292 283 295 268 287 268 277 278 284 156 181 142 153 280 146 153 181 140 125 126 135 99 150 136 133 133 89 93 208 131 101 108
375 384 357 357 376 376 394 382 351 292 268 277 278 281 272 284 240 285 287 143 209 273 208 148 122 315 135 252 134 175 117 141 136 138 146 139 149 151 155 158 135 163 122 157 132
406 349 342 358 383 382 383 267 282 281 273 275 266 264 270 265 269 200 162 298 215 160 157 293 150 129 133 129 111 130 133 145 143 278 189 144 152 161 180 440 384 171 232 335 303
384 347 356 383 378 369 250 240 264 261 257 253 263 258 270 141 290 282 271 276 267 261 148 281 211 107 267 143 126 156 173 285 143 143 152 156 344 182 175 176 187 206 209 236 141
378 361 362 292 257 256 251 263 267 259 267 263 259 174 265 269 274 217 269 156 277 128 143 194 192 122 231 151 158 222 147 145 168 244 209 341 298 174 151 138 155 148 205 252 167
382 285 264 242 263 255 264 261 213 235 259 255 249 262 267 201 148 132 231 217 125 184 180 130 138 142 146 144 288 166 140 341 327 186 165 181 151 132 156 162 152 158 144 146 164
279 278 257 261 265 258 251 251 249 239 235 240 247 246 192 138 134 130 154 269 125 134 392 128 255 146 195 188 301 337 331 176 171 179 179 300 193 333 306 324 330 322 357 161 148
270 254 262 257 253 249 234 236 231 229 239 246 258 133 136 229 135 300 332 355 146 134 145 148 167 169 313 318 312 280 166 141 259 307 291 161 310 319 308 322 334 348 379 395 166
269 262 260 249 194 240 231 223 218 217 199 228 232 275 135 295 317 139 351 146 249 168 181 148 197 319 243 178 170 138 319 307 298 152 149 295 302 317 308 314 318 342 368 388 399
270 256 251 224 225 232 239 233 247 264 266 138 262 375 341 388 355 353 283 262 215 304 270 319 307 168 312 270 311 258 302 292 290 286 294 296 294 297 304 245 323 329 376 383 397
261 250 204 147 221 238 236 236 212 247 256 381 326 374 374 211 170 348 170 190 330 225 309 306 298 305 148 136 216 148 290 277 283 280 286 287 301 287 300 308 295 316 344 373 365
142 217 217 220 220 202 257 230 272 274 240 280 299 199 220 200 357 185 183 334 189 188 296 148 149 275 294 285 309 253 280 282 272 269 290 280 283 253 135 141 248 309 301 350 380
224 224 222 245 213 222 223 268 265 261 240 270 194 155 216 279 173 170 344 255 216 240 320 135 145 186 300 307 275 266 280 280 267 265 274 238 220 200 130 123 125 138 171 188 382
227 216 193 235 262 232 250 241 248 257 250 264 181 260 160 142 211 315 311 341 193 155 213 287 312 260 300 252 276 219 267 276 267 265 268 273 276 127 129 255 251 126 152 151 195
224 178 242 262 245 212 251 225 249 252 245 150 181 164 245 266 295 153 354 311 247 137 133 116 207 318 259 256 270 271 268 275 278 263 269 268 279 279 279 266 277 132 276 285 290
226 242 230 238 245 239 256 211 218 162 218 241 244 147 241 172 246 199 245 179 133 244 157 343 297 158 294 272 282 277 275 271 269 263 256 267 269 265 281 257 261 280 283 281 293
Wind_Speed
66 68 75 87 71 83 84 82 87 78 88 77 92 86 91 75 68 64 63 55 54 48 58 44 55 44 43 47 34 40 42 40 53 39 51 37 43 45 50 46 42 49 45 39 53
68 67 72 74 77 76 75 66 78 84 78 87 65 84 80 80 100 60 65 57 54 53 46 53 49 49 37 41 47 53 47 54 43 47 45 54 48 48 54 52 55 53 50 22 43
67 70 72 75 75 79 80 79 79 80 92 88 75 72 106 77 97 77 59 52 52 49 47 58 45 42 48 45 51 36 52 44 43 32 44 50 41 51 43 53 62 40 53 44 51
68 70 72 75 75 77 79 79 75 83 81 76 77 82 83 62 80 83 66 59 57 52 53 54 39 39 41 47 32 56 46 57 57 62 48 42 34 50 48 61 50 58 68 63 60
71 69 72 76 76 77 78 78 79 76 78 78 67 65 60 56 56 83 57 113 60 55 61 53 72 41 38 44 40 53 47 43 59 51 48 55 52 45 42 59 57 26 41 67 58
73 73 74 79 78 78 59 79 77 70 68 68 60 53 73 77 60 60 115 59 57 52 58 50 64 47 32 43 51 45 43 51 52 56 47 49 43 50 42 51 75 55 68 59 46
76 76 75 77 80 83 82 82 77 71 66 57 49 53 66 74 52 63 56 69 63 56 50 52 46 49 34 37 45 46 55 54 53 57 38 46 49 52 55 55 37 10 50 21 28
77 79 78 79 81 82 81 84 70 47 46 46 42 40 47 41 55 51 57 62 60 51 44 44 52 46 40 43 35 52 52 52 57 52 34 30 47 65 56 51 66 44 58 40 86
81 82 84 83 84 84 75 60 46 46 36 36 36 34 50 33 37 47 55 56 50 49 50 46 41 42 33 46 53 42 33 61 64 63 28 37 52 52 56 56 42 13 23 66 70
90 88 85 81 69 56 51 47 41 38 32 34 26 52 30 33 43 39 40 41 51 54 46 41 54 48 52 39 58 42 60 56 42 33 43 45 44 54 49 50 56 47 52 54 85
73 64 59 51 42 34 30 33 36 31 32 32 28 26 30 36 35 31 30 34 42 48 49 41 48 33 66 49 38 95 64 53 37 43 50 49 55 55 61 57 35 56 62 76 66
45 40 34 22 19 13 14 22 27 14 32 28 24 24 27 25 34 30 44 44 48 50 42 49 51 36 52 29 50 50 30 44 39 47 22 47 54 54 56 22 20 66 55 26 37
27 17 6 6 9 13 18 26 35 35 28 27 23 20 25 18 25 26 33 37 34 37 34 22 23 54 29 56 35 55 31 39 28 43 49 54 54 58 59 61 51 57 34 70 56
13 24 14 6 14 22 29 41 37 37 28 21 18 17 21 28 28 31 11 35 35 18 25 46 46 28 29 35 27 35 42 43 46 73 51 53 58 59 49 18 13 65 60 40 49
36 22 18 17 29 35 39 35 36 32 26 22 13 14 6 9 26 25 27 30 32 37 33 44 34 24 49 26 38 46 47 70 48 50 58 59 16 49 52 53 52 50 51 40 45
40 30 33 52 47 44 37 40 35 28 18 13 9 14 2 12 20 22 23 12 33 18 12 38 29 26 48 34 40 36 43 46 51 31 47 17 8 56 35 45 45 45 54 28 47
40 71 56 41 46 40 41 34 20 20 19 17 13 1 10 13 25 12 26 24 25 42 27 20 29 30 32 34 17 42 34 16 7 40 41 49 44 39 53 59 50 58 45 51 61
69 68 50 49 47 44 40 37 35 33 24 17 8 5 27 10 16 8 23 40 20 18 2 22 19 31 27 34 9 19 16 36 40 43 32 17 31 37 18 33 4 29 20 65 61
61 47 57 54 50 48 49 45 37 24 18 12 8 16 9 7 6 12 9 7 15 20 23 25 28 31 11 11 11 11 37 18 10 26 20 47 30 33 18 37 42 43 30 20 70
67 60 59 55 37 44 48 38 29 23 18 16 15 7 7 11 14 11 18 15 10 18 17 19 19 18 10 33 6 9 29 27 28 28 37 25 23 37 33 33 34 38 31 20 14
66 60 60 53 52 51 41 39 31 26 22 13 15 14 17 19 17 20 13 9 9 14 21 25 20 27 29 13 22 24 34 32 29 23 27 28 23 28 40 19 42 36 32 18 23
61 60 43 31 52 48 44 39 24 27 28 29 22 22 22 9 2 20 6 7 18 9 26 26 20 21 11 6 8 25 40 28 31 25 30 30 40 24 35 38 32 30 29 25 27
35 53 49 50 50 29 51 39 58 56 30 55 59 20 12 8 22 5 3 16 9 11 25 9 8 15 15 13 27 24 30 29 28 24 28 39 35 25 16 16 21 22 21 21 24
59 54 51 52 40 40 40 62 64 61 46 63 21 9 33 50 9 9 20 13 9 12 37 9 17 18 20 17 27 28 32 35 28 26 27 18 16 12 19 16 15 20 19 23 38
57 44 32 45 53 53 56 56 62 66 59 68 28 61 12 6 25 22 22 26 8 8 7 22 31 15 28 19 27 18 27 30 31 27 29 32 31 20 21 30 23 20 34 35 30
52 21 52 53 55 33 59 41 62 65 62 17 32 16 63 74 75 13 34 26 18 7 9 8 21 25 42 29 29 21 28 28 31 27 31 31 36 38 41 39 33 24 58 47 63
47 50 47 45 46 55 58 33 36 21 48 60 66 15 64 29 69 30 59 23 7 11 19 31 41 12 37 44 25 25 29 31 31 27 28 31 41 32 43 45 38 26 43 62 45
Wind_Direction
281 260 268 265 273 260 261 255 256 265 253 256 239 237 237 233 232 231 230 231 231 228 234 235 234 237 238 240 241 237 228 247 244 256 239 255 250 244 251 245 241 246 235 235 247
290 282 272 278 268 271 256 254 261 260 260 252 231 236 236 234 242 232 231 231 234 233 234 236 237 237 238 244 240 241 247 242 252 252 255 241 240 246 240 246 250 248 239 227 236
292 288 281 278 274 271 271 273 261 265 256 248 265 242 244 233 237 234 234 235 238 237 236 233 239 240 241 243 245 247 234 254 253 250 256 250 248 239 250 253 250 240 245 232 231
295 288 283 282 271 275 274 278 272 260 266 257 256 242 245 233 242 234 236 235 236 236 237 237 237 242 242 244 242 238 250 241 248 247 249 247 242 242 250 248 249 245 244 237 235
298 291 288 286 282 282 280 282 283 271 257 256 262 260 258 248 237 233 230 242 233 236 236 237 242 240 243 246 249 244 249 250 245 249 248 243 246 249 241 249 249 237 246 242 234
298 291 288 284 284 283 269 282 287 284 259 279 247 254 230 236 237 228 237 230 234 237 238 237 236 242 239 247 246 251 247 252 251 249 252 241 242 245 242 244 238 248 256 248 230
296 293 288 284 283 284 281 286 285 282 276 242 255 240 231 234 240 237 225 234 230 234 236 237 241 243 237 246 249 250 244 253 254 247 248 243 246 247 247 240 251 212 255 198 221
293 291 288 286 285 285 285 286 279 263 251 249 239 238 238 239 236 228 238 238 228 228 232 234 235 239 243 248 243 251 252 253 256 251 250 242 225 236 239 244 249 236 239 248 239
294 292 289 288 286 285 281 270 259 243 244 238 230 223 232 234 234 240 231 242 228 229 230 232 229 239 236 249 243 240 252 249 264 260 232 213 238 248 241 244 240 171 247 242 247
295 292 289 285 280 270 263 253 242 230 223 222 209 235 214 216 230 237 249 251 238 224 227 231 244 235 242 243 241 251 247 250 253 221 230 229 241 246 251 245 244 256 257 254 237
286 284 282 279 273 266 255 235 224 218 201 192 194 200 207 226 234 238 243 242 244 245 221 235 231 218 255 250 233 259 246 250 243 231 238 232 232 250 243 249 254 251 240 250 246
281 281 279 272 261 237 221 201 199 174 176 174 192 201 217 229 230 227 232 235 240 243 225 235 232 248 258 254 240 236 225 230 240 244 245 246 243 247 250 216 237 248 248 257 253
274 267 223 253 242 184 171 169 158 146 169 157 176 195 210 226 225 236 237 214 232 250 243 244 240 257 234 251 216 248 233 240 249 251 253 254 250 245 245 244 246 237 248 240 249
214 159 169 201 161 154 154 149 136 127 136 150 169 194 215 213 224 223 177 248 234 249 244 254 234 217 225 226 221 240 244 251 250 264 251 256 252 248 241 1 275 236 244 242 238
152 146 151 152 134 136 149 164 135 137 135 151 168 200 228 143 231 243 248 255 260 259 226 265 253 213 260 246 243 248 253 272 253 254 253 251 307 239 240 236 230 237 233 240 244
152 148 134 119 137 135 139 125 121 128 127 117 92 86 210 262 265 247 265 181 263 215 250 242 255 237 265 250 250 252 253 254 248 258 264 32 292 238 251 235 253 261 227 265 236
139 119 129 140 127 132 117 115 133 105 89 75 104 306 270 216 214 171 260 262 209 235 242 236 247 254 252 256 241 253 234 92 79 245 251 243 262 262 251 245 255 248 257 245 232
124 121 134 120 115 108 99 90 85 89 93 91 84 126 191 114 224 195 232 263 220 237 186 251 209 256 250 257 229 134 131 244 251 257 258 28 268 33 23 24 10 356 8 237 249
127 127 119 112 105 99 92 83 86 89 83 63 8 193 109 166 162 137 140 123 237 253 257 257 252 250 134 116 111 216 250 265 81 64 33 259 46 52 52 27 24 17 23 20 230
118 115 110 103 87 99 87 92 98 86 82 86 73 81 134 127 142 235 123 237 180 250 255 227 249 122 223 254 222 308 107 97 87 269 266 35 48 47 53 34 28 21 26 34 55
112 109 107 108 101 90 86 90 84 79 75 90 51 59 70 121 119 126 148 153 233 162 169 143 122 251 119 116 106 120 104 99 84 77 62 45 56 64 45 29 54 40 47 50 92
111 107 114 74 101 91 94 90 89 87 77 62 66 73 77 86 148 123 240 238 116 203 153 130 125 137 293 335 270 282 105 108 86 73 63 67 70 61 52 66 66 43 39 84 118
69 107 113 103 99 103 91 95 78 78 77 72 67 74 90 62 105 15 94 134 185 200 127 209 196 124 114 124 111 120 118 113 105 85 69 76 71 70 220 225 123 55 124 89 79
110 108 104 99 102 97 94 81 81 79 76 69 73 90 66 61 19 358 114 108 101 143 155 280 270 111 112 122 120 115 111 107 107 95 80 117 116 152 227 234 243 236 219 211 113
108 96 97 94 89 104 91 94 85 78 75 75 74 65 41 341 52 91 91 104 148 100 78 150 158 131 126 116 113 119 105 106 108 101 93 85 77 224 234 131 99 255 232 233 214
104 78 99 85 95 96 86 100 83 81 85 82 70 57 69 64 62 137 83 92 118 256 308 198 156 125 107 109 113 106 100 96 101 106 88 91 94 103 109 131 104 255 153 155 157
103 99 104 90 82 93 78 98 95 63 79 79 76 60 66 74 64 45 65 89 230 82 58 108 101 39 124 91 113 108 95 91 93 106 107 99 109 119 115 147 130 132 154 162 164